Location: Corralito
(10.2667°N, 66.9500°W)
Time: 19:25:05
(UTC+00:00)

ARIANE 5 DEB (SYLDA) - Pass Details

Date: 06 December 2023
Orbit: 268 x 8124 km, 6.8° (Epoch: 04 March)

Event Time Altitude Azimuth Distance (km) Brightness Sun altitude
Rises 03:41:02 0° 270° (W) 12,029 9.7 -74.9°
Reaches altitude 10° 03:51:21 10° 267° (W) 11,821 9.5 -76.2°
Enters shadow 04:45:14 53° 233° (SW) 8,466 8.4 -76.2°
Exits shadow 05:07:42 57° 161° (SSE) 6,026 7.7 -73.1°
Drops below altitude 10° 05:25:26 10° 115° (ESE) 5,814 8.1 -69.9°
Sets 05:28:29 0° 111° (ESE) 6,179 8.4 -69.3°
